Miscellaneous Local Product
Issued by NWS North Platte, NE

Home | Current Version | Previous Version | Graphics & Text | Print | Product List | Glossary On
Versions: 1 2 3 4 5 6 7 8 9 10 11 12 13 14 15 16 17 18 19 20 21 22 23 24 25 26 27 28 29 30 31 32 33 34 35 36 37 38 39 40 41 42 43 44 45 46 47 48 49 50
000
AXUS43 KLBF 220910
MISLBF


WESTERN AND NORTH CENTRAL NEBRASKA HOURLY WEATHER ROUNDUP
NATIONAL WEATHER SERVICE NORTH PLATTE NE
400 AM CDT SUN APR 22 2018

NOTE: "FAIR" INDICATES FEW OR NO CLOUDS BELOW 12,000 FEET WITH NO
SIGNIFICANT WEATHER AND/OR OBSTRUCTIONS TO VISIBILITY.

NOTE: STATIONS NOT REPORTING VARIABLES SUCH AS SKY/WEATHER OR
PRESSURE ARE PROVIDED BY RAWS AND APRS NETWORKS AND ARE NOT UNDER
NATIONAL WEATHER SERVICE QUALITY CONTROL.

...OBSERVATIONS IN AND NEAR THE EASTERN PANHANDLE OF NEBRASKA...

CITY           SKY/WX    TMP DP  RH WIND       PRES   REMARKS
PINE RIDGE     CLEAR     36  35  96 S12       30.15F WCI  28
GORDON         FAIR      33  32  95 CALM      30.16F
CHADRON        CLEAR     36  34  92 SW8       30.15S WCI  30
ALLIANCE       MOCLDY    34  33  96 S8        30.16F WCI  27
SIDNEY         CLOUDY    37  33  85 SW10      30.17S WCI  30
CRESCENT LAKE    N/A     36  36  99 S6G13       N/A  WCI  31
$$

...OBSERVATIONS IN NORTHERN NEBRASKA AND FAR SOUTHERN SOUTH DAKOTA...

CITY           SKY/WX    TMP DP  RH WIND       PRES   REMARKS
WINNER         CLOUDY    42  34  73 S7        30.22F
VALENTINE      CLOUDY    40  37  89 SW3       30.21S
AINSWORTH      PTCLDY    37  35  94 S5        30.21F WCI  33
O`NEILL        CLOUDY    42  38  86 CALM      30.24F
THEDFORD       CLOUDY    39  37  93 S5        30.22F
BROKEN BOW     PTCLDY    37  34  89 NW3       30.21F
ORD            CLOUDY    40  38  93 CALM      30.22F
ALBION         MOCLDY    38  35  90 NW5       30.24R WCI  34
VALENTINE NWR    N/A     38  36  91 S6          N/A  WCI  33
HALSEY           N/A     39  39  99 CALM        N/A
BUTTE            N/A     40  36  85 CALM        N/A
CHAMBERS         N/A     40  37  88 CALM        N/A
EWING            N/A     39  35  84 CALM        N/A
$$

...OBSERVATIONS IN SOUTHWEST NEBRASKA AND FAR NORTHEAST COLORADO...

CITY           SKY/WX    TMP DP  RH WIND       PRES   REMARKS
WRAY           CLOUDY    36  36 100 CALM      30.20S FOG
HOLYOKE        CLOUDY    37  36  93 CALM      30.20S FOG
IMPERIAL       CLOUDY    40  39  97 CALM      30.21S
OGALLALA       CLOUDY    37  36  98 CALM      30.21S FOG
NORTH PLATTE   CLOUDY    40  38  93 CALM      30.22S FOG
MCCOOK         CLOUDY    40  39  97 N5        30.21S FOG
LEXINGTON      CLOUDY    40  37  89 CALM      30.22S
STAPLETON        N/A     38  36  93 CALM        N/A
GOTHENBURG       N/A     40  36  87 CALM        N/A
CALLAWAY         N/A     39  37  93 CALM        N/A
$$

...OBSERVATIONS IN CENTRAL LINCOLN COUNTY AREA...

CITY           SKY/WX    TMP DP  RH WIND       PRES   REMARKS
N.P. AIRPORT   CLOUDY    40  38  93 CALM      30.22S FOG
N.P. DOWNTOWN    N/A     39  37  94 CALM        N/A
N.P. SOUTHEAST   N/A     39  37  93 CALM        N/A
N.P. HILLCREST   N/A     39  38  95 CALM        N/A
$$

...OBSERVATIONS ACROSS THE ROCKIES AND WESTERN HIGH PLAINS...

CITY           SKY/WX    TMP DP  RH WIND       PRES   REMARKS
RAPID CITY     CLEAR     36  33  89 S8        30.10F WCI  30
SCOTTSBLUFF    CLEAR     33  33 100 E8        30.15F WCI  26
CHEYENNE       FOG       33  33 100 SW12      30.14S VSB 3/4 WCI  24
DENVER         CLEAR     33  30  88 E7        30.15R WCI  27
BERTHOUD PASS  CLOUDY    23  12  63 NW29G45   30.32R WCI   6
MONARCH PASS     N/A     23  21  93 W16       30.43F WCI  10
ASPEN          CLEAR     28  25  88 CALM      30.27S
STEAMBOAT      FAIR      32  31  99 CALM      30.24S
LARAMIE        CLEAR     26  26 100 SE9       30.16S WCI  17
CASPER         CLEAR     31  31 100 CALM      30.12R
$$

...OBSERVATIONS ACROSS THE NORTHERN PLAINS...

CITY           SKY/WX    TMP DP  RH WIND       PRES   REMARKS
BISMARCK       CLEAR     39  34  82 S13       30.15F WCI  31
FARGO          FAIR      42  33  70 S8        30.27S
PIERRE         CLEAR     36  34  92 S6        30.20F WCI  31
SIOUX FALLS    CLOUDY    37  33  85 NE6       30.26F WCI  32
$$

...OBSERVATIONS ACROSS THE CENTRAL AND SOUTHERN PLAINS...

CITY           SKY/WX    TMP DP  RH WIND       PRES   REMARKS
OMAHA          CLOUDY    48  30  49 NW7       30.22R
GRAND ISLAND   MOCLDY    37  36  96 NW7       30.22R FOG     WCI  32
KANSAS CITY    CLOUDY    53  31  42 NE12      30.10F
WICHITA        LGT RAIN  45  44  97 N13       30.08F
DODGE CITY     CLOUDY    42  39  89 NW8       30.18S
OKLAHOMA CITY  CLOUDY    45  42  89 N16       30.09F
DALLAS         CLOUDY    53  48  83 N15G29    30.04R
AMARILLO       CLOUDY    42  39  89 N10       30.19S
$$




USA.gov is the U.S. government's official web portal to all federal, state and local government web resources and services.